User: anonymous   Login
Location: Unspecified
(0.0000°N, 0.0000°E)
Time: 06:21:33
(UTC+01:00)
Language:

NATO 3D Rocket - Orbit

View from above orbital plane
View from above orbital plane
View from above satellite
View from above satellite

Ground track
Ground track

The orbit data is extracted from the following two-line orbital elements,

1 15392U 84115B   14303.47676270  .00000151  00000-0  19301-5 0  2101
2 15392 021.4925 020.8821 1035030 092.9586 007.6685 12.45435681364146
Epoch (UTC): 30 October 2014 11:26:32
Eccentricity: 0.1035030
inclination: 21.4925°
perigee height: 670 km
apogee height: 2297 km
right ascension of ascending node: 20.8821°
argument of perigee: 92.9586°
revolutions per day: 12.45435681
mean anomaly at epoch: 7.6685°
orbit number at epoch: 36414

The dashed part of the orbit path shows where the satellite is in the earth's shadow,  

DLR